Time,TemperatureF,DewpointF,PressureIn,WindDirection,WindDirectionDegrees,WindSpeedMPH,WindSpeedGustMPH,Humidity,HourlyPrecipIn,Conditions,Clouds,dailyrainin,SoftwareType,DateUTC
2013-08-20 00:01:00,74.5,70.1,29.89,SE,127,0.0,0.0,86,0.00,,,0.00,WUHU216DAVISVP2,2013-08-20 05:01:00,
2013-08-20 00:06:00,74.4,70.0,29.89,SE,137,0.0,0.0,86,0.00,,,0.00,WUHU216DAVISVP2,2013-08-20 05:06:00,
2013-08-20 00:11:00,74.2,69.8,29.89,SE,137,0.0,0.0,86,0.00,,,0.00,WUHU216DAVISVP2,2013-08-20 05:11:00,
2013-08-20 00:16:00,74.0,69.6,29.89,SE,136,0.0,0.0,86,0.00,,,0.00,WUHU216DAVISVP2,2013-08-20 05:16:00,
2013-08-20 00:21:00,73.9,69.8,29.89,SE,136,0.0,0.0,87,0.00,,,0.00,WUHU216DAVISVP2,2013-08-20 05:21:00,
2013-08-20 00:26:00,73.7,69.6,29.89,SE,136,0.0,0.0,87,0.00,,,0.00,WUHU216DAVISVP2,2013-08-20 05:26:00,
2013-08-20 00:31:00,73.6,69.5,29.89,SE,136,0.0,0.0,87,0.00,,,0.00,WUHU216DAVISVP2,2013-08-20 05:31:00,
2013-08-20 00:36:00,73.4,69.6,29.90,SE,136,0.0,0.0,88,0.00,,,0.00,WUHU216DAVISVP2,2013-08-20 05:36:00,
2013-08-20 00:41:00,73.2,69.4,29.89,SE,136,0.0,0.0,88,0.00,,,0.00,WUHU216DAVISVP2,2013-08-20 05:41:00,
2013-08-20 00:46:00,73.1,69.3,29.89,SE,141,0.0,0.0,88,0.00,,,0.00,WUHU216DAVISVP2,2013-08-20 05:46:00,
2013-08-20 00:51:00,73.0,69.2,29.89,SE,134,0.0,0.0,88,0.00,,,0.00,WUHU216DAVISVP2,2013-08-20 05:51:00,
2013-08-20 00:56:00,72.9,69.5,29.89,SE,137,0.0,0.0,89,0.00,,,0.00,WUHU216DAVISVP2,2013-08-20 05:56:00,
2013-08-20 01:01:00,72.9,69.5,29.89,SE,139,0.0,0.0,89,0.00,,,0.00,WUHU216DAVISVP2,2013-08-20 06:01:00,
2013-08-20 01:06:00,72.8,69.4,29.89,SE,146,0.0,0.0,89,0.00,,,0.00,WUHU216DAVISVP2,2013-08-20 06:06:00,
2013-08-20 01:11:00,72.7,69.3,29.89,SE,146,0.0,0.0,89,0.00,,,0.00,WUHU216DAVISVP2,2013-08-20 06:11:00,
2013-08-20 01:16:00,72.7,69.3,29.89,SE,146,0.0,0.0,89,0.00,,,0.00,WUHU216DAVISVP2,2013-08-20 06:16:00,
2013-08-20 01:21:00,72.6,69.2,29.89,SE,143,0.0,0.0,89,0.00,,,0.00,WUHU216DAVISVP2,2013-08-20 06:21:00,
2013-08-20 01:26:00,72.6,69.2,29.89,SE,143,0.0,0.0,89,0.00,,,0.00,WUHU216DAVISVP2,2013-08-20 06:26:00,
2013-08-20 01:31:00,72.5,69.1,29.89,SE,143,0.0,0.0,89,0.00,,,0.00,WUHU216DAVISVP2,2013-08-20 06:31:00,
2013-08-20 01:36:00,72.5,69.4,29.89,SE,143,0.0,0.0,90,0.00,,,0.00,WUHU216DAVISVP2,2013-08-20 06:36:00,
2013-08-20 01:41:00,72.4,69.3,29.89,SE,143,0.0,0.0,90,0.00,,,0.00,WUHU216DAVISVP2,2013-08-20 06:41:00,
2013-08-20 01:46:00,72.3,69.2,29.88,SE,143,0.0,0.0,90,0.00,,,0.00,WUHU216DAVISVP2,2013-08-20 06:46:00,
2013-08-20 01:51:00,72.2,69.1,29.88,SE,143,0.0,0.0,90,0.00,,,0.00,WUHU216DAVISVP2,2013-08-20 06:51:00,
2013-08-20 01:56:00,72.2,69.1,29.88,SE,143,0.0,0.0,90,0.00,,,0.00,WUHU216DAVISVP2,2013-08-20 06:56:00,
2013-08-20 02:01:00,72.2,69.1,29.88,SE,143,0.0,0.0,90,0.00,,,0.00,WUHU216DAVISVP2,2013-08-20 07:01:00,
2013-08-20 02:06:00,72.1,69.0,29.88,SE,146,0.0,0.0,90,0.00,,,0.00,WUHU216DAVISVP2,2013-08-20 07:06:00,
2013-08-20 02:11:00,72.0,68.9,29.88,SE,145,0.0,0.0,90,0.00,,,0.00,WUHU216DAVISVP2,2013-08-20 07:11:00,
2013-08-20 02:16:00,71.8,68.7,29.88,SE,146,0.0,0.0,90,0.00,,,0.00,WUHU216DAVISVP2,2013-08-20 07:16:00,
2013-08-20 02:21:00,71.6,68.5,29.88,SE,146,0.0,0.0,90,0.00,,,0.00,WUHU216DAVISVP2,2013-08-20 07:21:00,
2013-08-20 02:26:00,71.5,68.7,29.88,SE,146,0.0,0.0,91,0.00,,,0.00,WUHU216DAVISVP2,2013-08-20 07:26:00,
2013-08-20 02:31:00,71.4,68.6,29.88,SE,136,0.0,0.0,91,0.00,,,0.00,WUHU216DAVISVP2,2013-08-20 07:31:00,
2013-08-20 02:36:00,71.3,68.5,29.88,SE,136,0.0,0.0,91,0.00,,,0.00,WUHU216DAVISVP2,2013-08-20 07:36:00,
2013-08-20 02:41:00,71.2,68.4,29.88,SE,136,0.0,0.0,91,0.00,,,0.00,WUHU216DAVISVP2,2013-08-20 07:41:00,
2013-08-20 02:46:00,71.0,68.2,29.88,SE,136,0.0,0.0,91,0.00,,,0.00,WUHU216DAVISVP2,2013-08-20 07:46:00,
2013-08-20 02:51:00,70.9,68.1,29.88,SE,136,0.0,0.0,91,0.00,,,0.00,WUHU216DAVISVP2,2013-08-20 07:51:00,
2013-08-20 02:56:00,70.9,68.5,29.88,SE,136,0.0,0.0,92,0.00,,,0.00,WUHU216DAVISVP2,2013-08-20 07:56:00,
2013-08-20 03:01:00,70.7,68.2,29.87,SE,136,0.0,0.0,92,0.00,,,0.00,WUHU216DAVISVP2,2013-08-20 08:01:00,
2013-08-20 03:06:00,70.7,68.3,29.87,SE,136,0.0,0.0,92,0.00,,,0.00,WUHU216DAVISVP2,2013-08-20 08:06:00,
2013-08-20 03:11:00,70.5,68.1,29.87,SE,136,0.0,0.0,92,0.00,,,0.00,WUHU216DAVISVP2,2013-08-20 08:11:00,
2013-08-20 03:16:00,70.4,68.0,29.87,SE,136,0.0,0.0,92,0.00,,,0.00,WUHU216DAVISVP2,2013-08-20 08:16:00,
2013-08-20 03:21:00,70.3,67.9,29.87,SE,136,0.0,0.0,92,0.00,,,0.00,WUHU216DAVISVP2,2013-08-20 08:21:00,
2013-08-20 03:26:00,70.2,68.1,29.87,ESE,106,0.0,0.0,93,0.00,,,0.00,WUHU216DAVISVP2,2013-08-20 08:26:00,
2013-08-20 03:31:00,70.1,68.0,29.87,ESE,106,0.0,0.0,93,0.00,,,0.00,WUHU216DAVISVP2,2013-08-20 08:31:00,
2013-08-20 03:36:00,70.1,68.0,29.87,East,86,0.0,0.0,93,0.00,,,0.00,WUHU216DAVISVP2,2013-08-20 08:36:00,
2013-08-20 03:41:00,69.9,67.8,29.87,East,86,0.0,0.0,93,0.00,,,0.00,WUHU216DAVISVP2,2013-08-20 08:41:00,
2013-08-20 03:46:00,69.9,67.8,29.87,East,86,0.0,0.0,93,0.00,,,0.00,WUHU216DAVISVP2,2013-08-20 08:46:00,
2013-08-20 03:51:00,69.8,67.7,29.87,East,86,0.0,0.0,93,0.00,,,0.00,WUHU216DAVISVP2,2013-08-20 08:51:00,
2013-08-20 03:56:00,69.6,67.5,29.87,East,86,0.0,0.0,93,0.00,,,0.00,WUHU216DAVISVP2,2013-08-20 08:56:00,
2013-08-20 04:01:00,69.5,67.4,29.87,East,87,0.0,0.0,93,0.00,,,0.00,WUHU216DAVISVP2,2013-08-20 09:01:00,
2013-08-20 04:06:00,69.4,67.3,29.87,East,87,0.0,0.0,93,0.00,,,0.00,WUHU216DAVISVP2,2013-08-20 09:06:00,
2013-08-20 04:11:00,69.3,67.2,29.87,East,87,0.0,0.0,93,0.00,,,0.00,WUHU216DAVISVP2,2013-08-20 09:11:00,
2013-08-20 04:16:00,69.2,67.1,29.87,East,87,0.0,0.0,93,0.00,,,0.00,WUHU216DAVISVP2,2013-08-20 09:16:00,
2013-08-20 04:21:00,69.1,67.3,29.87,East,87,0.0,0.0,94,0.00,,,0.00,WUHU216DAVISVP2,2013-08-20 09:21:00,
2013-08-20 04:26:00,69.0,67.2,29.87,East,87,0.0,0.0,94,0.00,,,0.00,WUHU216DAVISVP2,2013-08-20 09:26:00,
2013-08-20 04:31:00,68.9,67.1,29.87,East,87,0.0,0.0,94,0.00,,,0.00,WUHU216DAVISVP2,2013-08-20 09:31:00,
2013-08-20 04:36:00,68.8,67.0,29.87,East,87,0.0,0.0,94,0.00,,,0.00,WUHU216DAVISVP2,2013-08-20 09:36:00,
2013-08-20 04:41:00,68.8,67.0,29.87,East,87,0.0,0.0,94,0.00,,,0.00,WUHU216DAVISVP2,2013-08-20 09:41:00,
2013-08-20 04:46:00,68.7,66.9,29.87,East,87,0.0,0.0,94,0.00,,,0.00,WUHU216DAVISVP2,2013-08-20 09:46:00,
2013-08-20 04:51:00,68.6,66.8,29.87,East,87,0.0,0.0,94,0.00,,,0.00,WUHU216DAVISVP2,2013-08-20 09:51:00,
2013-08-20 04:56:00,68.5,66.7,29.87,East,87,0.0,0.0,94,0.00,,,0.00,WUHU216DAVISVP2,2013-08-20 09:56:00,
2013-08-20 05:01:00,68.5,66.7,29.87,East,87,0.0,0.0,94,0.00,,,0.00,WUHU216DAVISVP2,2013-08-20 10:01:00,
2013-08-20 05:06:00,68.4,66.6,29.87,East,87,0.0,0.0,94,0.00,,,0.00,WUHU216DAVISVP2,2013-08-20 10:06:00,
2013-08-20 05:11:00,68.4,66.9,29.87,East,88,0.0,0.0,95,0.00,,,0.00,WUHU216DAVISVP2,2013-08-20 10:11:00,
2013-08-20 05:16:00,68.3,66.8,29.87,East,88,0.0,0.0,95,0.00,,,0.00,WUHU216DAVISVP2,2013-08-20 10:16:00,
2013-08-20 05:21:00,68.3,66.8,29.87,East,88,0.0,0.0,95,0.00,,,0.00,WUHU216DAVISVP2,2013-08-20 10:21:00,
2013-08-20 05:26:00,68.2,66.7,29.87,East,88,0.0,0.0,95,0.00,,,0.00,WUHU216DAVISVP2,2013-08-20 10:26:00,
2013-08-20 05:31:00,68.2,66.7,29.87,East,88,0.0,0.0,95,0.00,,,0.00,WUHU216DAVISVP2,2013-08-20 10:31:00,
2013-08-20 05:36:00,68.1,66.6,29.87,East,88,0.0,0.0,95,0.00,,,0.00,WUHU216DAVISVP2,2013-08-20 10:36:00,
2013-08-20 05:41:00,68.1,66.6,29.87,East,88,0.0,0.0,95,0.00,,,0.00,WUHU216DAVISVP2,2013-08-20 10:41:00,
2013-08-20 05:46:00,68.0,66.5,29.87,East,87,0.0,0.0,95,0.00,,,0.00,WUHU216DAVISVP2,2013-08-20 10:46:00,
2013-08-20 05:51:00,68.0,66.5,29.87,East,88,0.0,0.0,95,0.00,,,0.00,WUHU216DAVISVP2,2013-08-20 10:51:00,
2013-08-20 05:55:00,68.0,66.5,29.87,East,87,0.0,0.0,95,0.00,,,0.00,WUHU216DAVISVP2,2013-08-20 10:55:00,
2013-08-20 06:00:00,67.9,66.4,29.87,East,88,0.0,0.0,95,0.00,,,0.00,WUHU216DAVISVP2,2013-08-20 11:00:00,
2013-08-20 06:05:00,67.9,66.4,29.87,East,88,0.0,0.0,95,0.00,,,0.00,WUHU216DAVISVP2,2013-08-20 11:05:00,
2013-08-20 06:10:00,67.8,66.3,29.87,East,88,0.0,0.0,95,0.00,,,0.00,WUHU216DAVISVP2,2013-08-20 11:10:00,
2013-08-20 06:15:00,67.7,66.2,29.87,East,87,0.0,0.0,95,0.00,,,0.00,WUHU216DAVISVP2,2013-08-20 11:15:00,
2013-08-20 06:20:00,67.6,66.1,29.87,East,87,0.0,0.0,95,0.00,,,0.00,WUHU216DAVISVP2,2013-08-20 11:20:00,
2013-08-20 06:25:00,67.5,66.3,29.87,East,87,0.0,0.0,96,0.00,,,0.00,WUHU216DAVISVP2,2013-08-20 11:25:00,
2013-08-20 06:30:00,67.4,66.2,29.87,East,87,0.0,0.0,96,0.00,,,0.00,WUHU216DAVISVP2,2013-08-20 11:30:00,
2013-08-20 06:35:00,67.4,66.2,29.87,East,87,0.0,0.0,96,0.00,,,0.00,WUHU216DAVISVP2,2013-08-20 11:35:00,
2013-08-20 06:40:00,67.3,66.1,29.87,East,87,0.0,0.0,96,0.00,,,0.00,WUHU216DAVISVP2,2013-08-20 11:40:00,
2013-08-20 06:45:00,67.3,66.1,29.88,East,87,0.0,0.0,96,0.00,,,0.00,WUHU216DAVISVP2,2013-08-20 11:45:00,
2013-08-20 06:50:00,67.3,66.1,29.88,East,88,0.0,0.0,96,0.00,,,0.00,WUHU216DAVISVP2,2013-08-20 11:50:00,
2013-08-20 06:55:00,67.3,66.1,29.88,East,87,0.0,0.0,96,0.00,,,0.00,WUHU216DAVISVP2,2013-08-20 11:55:00,
2013-08-20 07:00:00,67.3,66.1,29.88,East,88,0.0,0.0,96,0.00,,,0.00,WUHU216DAVISVP2,2013-08-20 12:00:00,
2013-08-20 07:05:00,67.3,66.1,29.88,East,87,0.0,0.0,96,0.00,,,0.00,WUHU216DAVISVP2,2013-08-20 12:05:00,
2013-08-20 07:10:00,67.3,66.1,29.88,East,88,0.0,0.0,96,0.00,,,0.00,WUHU216DAVISVP2,2013-08-20 12:10:00,
2013-08-20 07:15:00,67.4,66.2,29.88,East,88,0.0,0.0,96,0.00,,,0.00,WUHU216DAVISVP2,2013-08-20 12:15:00,
2013-08-20 07:20:00,67.5,66.3,29.88,East,87,0.0,0.0,96,0.00,,,0.00,WUHU216DAVISVP2,2013-08-20 12:20:00,
2013-08-20 07:25:00,67.7,66.5,29.89,East,88,0.0,0.0,96,0.00,,,0.00,WUHU216DAVISVP2,2013-08-20 12:25:00,
2013-08-20 07:30:00,68.1,66.9,29.89,East,88,0.0,0.0,96,0.00,,,0.00,WUHU216DAVISVP2,2013-08-20 12:30:00,
2013-08-20 07:35:00,68.4,67.2,29.89,East,87,0.0,0.0,96,0.00,,,0.00,WUHU216DAVISVP2,2013-08-20 12:35:00,
2013-08-20 07:40:00,68.7,67.5,29.89,East,87,0.0,0.0,96,0.00,,,0.00,WUHU216DAVISVP2,2013-08-20 12:40:00,
2013-08-20 07:45:00,69.1,67.6,29.89,East,87,0.0,0.0,95,0.00,,,0.00,WUHU216DAVISVP2,2013-08-20 12:45:00,
2013-08-20 07:50:00,69.4,67.9,29.89,East,87,0.0,0.0,95,0.00,,,0.00,WUHU216DAVISVP2,2013-08-20 12:50:00,
2013-08-20 07:55:00,69.7,67.9,29.89,East,87,0.0,0.0,94,0.00,,,0.00,WUHU216DAVISVP2,2013-08-20 12:55:00,
2013-08-20 08:00:00,70.1,68.0,29.90,East,87,0.0,0.0,93,0.00,,,0.00,WUHU216DAVISVP2,2013-08-20 13:00:00,
2013-08-20 08:05:00,70.5,68.3,29.90,East,87,0.0,0.0,93,0.00,,,0.00,WUHU216DAVISVP2,2013-08-20 13:05:00,
2013-08-20 08:10:00,71.0,68.2,29.90,East,98,0.0,0.0,91,0.00,,,0.00,WUHU216DAVISVP2,2013-08-20 13:10:00,
2013-08-20 08:15:00,71.6,68.2,29.90,SW,235,0.0,0.0,89,0.00,,,0.00,WUHU216DAVISVP2,2013-08-20 13:15:00,
2013-08-20 08:20:00,71.4,68.3,29.90,WSW,245,0.0,0.0,90,0.00,,,0.00,WUHU216DAVISVP2,2013-08-20 13:20:00,
2013-08-20 08:25:00,71.7,68.6,29.90,WSW,255,0.0,0.0,90,0.00,,,0.00,WUHU216DAVISVP2,2013-08-20 13:25:00,
2013-08-20 08:30:00,71.9,68.5,29.90,WSW,249,0.0,0.0,89,0.00,,,0.00,WUHU216DAVISVP2,2013-08-20 13:30:00,
2013-08-20 08:35:00,72.0,68.6,29.90,WSW,250,0.0,0.0,89,0.00,,,0.00,WUHU216DAVISVP2,2013-08-20 13:35:00,
2013-08-20 08:40:00,72.2,68.8,29.90,West,269,0.0,0.0,89,0.00,,,0.00,WUHU216DAVISVP2,2013-08-20 13:40:00,
2013-08-20 08:45:00,72.8,69.4,29.90,SW,228,0.0,0.0,89,0.00,,,0.00,WUHU216DAVISVP2,2013-08-20 13:45:00,
2013-08-20 08:50:00,73.5,69.4,29.90,ENE,71,0.0,0.0,87,0.00,,,0.00,WUHU216DAVISVP2,2013-08-20 13:50:00,
2013-08-20 08:55:00,74.1,69.7,29.90,ENE,71,0.0,0.0,86,0.00,,,0.00,WUHU216DAVISVP2,2013-08-20 13:55:00,
2013-08-20 09:00:00,74.6,69.8,29.90,East,98,0.0,0.0,85,0.00,,,0.00,WUHU216DAVISVP2,2013-08-20 14:00:00,
2013-08-20 09:05:00,74.9,69.8,29.90,ESE,108,0.0,0.0,84,0.00,,,0.00,WUHU216DAVISVP2,2013-08-20 14:05:00,
2013-08-20 09:10:00,74.5,69.7,29.90,ESE,118,0.0,0.0,85,0.00,,,0.00,WUHU216DAVISVP2,2013-08-20 14:10:00,
2013-08-20 09:15:00,74.4,69.6,29.90,SE,128,0.0,0.0,85,0.00,,,0.00,WUHU216DAVISVP2,2013-08-20 14:15:00,
2013-08-20 09:20:00,75.0,70.2,29.90,SE,128,0.0,0.0,85,0.00,,,0.00,WUHU216DAVISVP2,2013-08-20 14:20:00,
2013-08-20 09:25:00,75.6,70.5,29.90,SE,131,0.0,0.0,84,0.00,,,0.00,WUHU216DAVISVP2,2013-08-20 14:25:00,
2013-08-20 09:30:00,76.0,70.5,29.90,ESE,123,0.0,0.0,83,0.00,,,0.00,WUHU216DAVISVP2,2013-08-20 14:30:00,
2013-08-20 09:35:00,76.4,70.9,29.90,East,99,0.0,0.0,83,0.00,,,0.00,WUHU216DAVISVP2,2013-08-20 14:35:00,
2013-08-20 09:40:00,76.3,70.8,29.90,East,101,0.0,0.0,83,0.00,,,0.00,WUHU216DAVISVP2,2013-08-20 14:40:00,
2013-08-20 09:45:00,76.3,70.8,29.90,East,93,0.0,0.0,83,0.00,,,0.00,WUHU216DAVISVP2,2013-08-20 14:45:00,
2013-08-20 09:50:00,76.3,71.2,29.90,SE,141,0.0,0.0,84,0.00,,,0.00,WUHU216DAVISVP2,2013-08-20 14:50:00,
2013-08-20 09:55:00,77.0,71.5,29.90,East,96,0.0,0.0,83,0.00,,,0.00,WUHU216DAVISVP2,2013-08-20 14:55:00,
2013-08-20 10:00:00,77.3,71.5,29.90,NE,50,0.0,0.0,82,0.00,,,0.00,WUHU216DAVISVP2,2013-08-20 15:00:00,
2013-08-20 10:05:00,77.7,72.2,29.90,NE,50,0.0,0.0,83,0.00,,,0.00,WUHU216DAVISVP2,2013-08-20 15:05:00,
2013-08-20 10:10:00,78.2,72.0,29.90,SSE,153,0.0,0.0,81,0.00,,,0.00,WUHU216DAVISVP2,2013-08-20 15:10:00,
2013-08-20 10:15:00,77.7,71.5,29.90,East,83,0.0,0.0,81,0.00,,,0.00,WUHU216DAVISVP2,2013-08-20 15:15:00,
2013-08-20 10:20:00,77.9,72.4,29.90,SSW,203,0.0,0.0,83,0.00,,,0.00,WUHU216DAVISVP2,2013-08-20 15:20:00,
2013-08-20 10:25:00,78.3,72.4,29.90,East,94,1.0,1.0,82,0.00,,,0.00,WUHU216DAVISVP2,2013-08-20 15:25:00,
2013-08-20 10:30:00,78.5,72.3,29.90,ESE,108,0.0,1.0,81,0.00,,,0.00,WUHU216DAVISVP2,2013-08-20 15:30:00,
2013-08-20 10:35:00,78.8,72.9,29.90,SE,128,0.0,1.0,82,0.00,,,0.00,WUHU216DAVISVP2,2013-08-20 15:35:00,
2013-08-20 10:40:00,79.2,72.9,29.90,SW,228,2.0,3.0,81,0.00,,,0.00,WUHU216DAVISVP2,2013-08-20 15:40:00,
2013-08-20 10:45:00,79.4,72.7,29.90,West,280,1.0,3.0,80,0.00,,,0.00,WUHU216DAVISVP2,2013-08-20 15:45:00,
2013-08-20 10:50:00,79.7,73.1,29.90,East,90,1.0,3.0,80,0.00,,,0.00,WUHU216DAVISVP2,2013-08-20 15:50:00,
2013-08-20 10:55:00,80.0,73.4,29.90,SW,218,1.0,3.0,80,0.00,,,0.00,WUHU216DAVISVP2,2013-08-20 15:55:00,
2013-08-20 11:00:00,80.6,73.6,29.90,NE,56,2.0,3.0,79,0.00,,,0.00,WUHU216DAVISVP2,2013-08-20 16:00:00,
2013-08-20 11:05:00,80.5,73.1,29.90,ESE,105,2.0,4.0,78,0.00,,,0.00,WUHU216DAVISVP2,2013-08-20 16:05:00,
2013-08-20 11:10:00,80.4,73.4,29.90,East,99,2.0,4.0,79,0.00,,,0.00,WUHU216DAVISVP2,2013-08-20 16:10:00,
2013-08-20 11:15:00,80.6,73.6,29.90,SE,144,1.0,4.0,79,0.00,,,0.00,WUHU216DAVISVP2,2013-08-20 16:15:00,
2013-08-20 11:20:00,81.2,74.2,29.90,East,85,3.0,5.0,79,0.00,,,0.00,WUHU216DAVISVP2,2013-08-20 16:20:00,
2013-08-20 11:25:00,81.0,74.0,29.90,East,98,2.0,5.0,79,0.00,,,0.00,WUHU216DAVISVP2,2013-08-20 16:25:00,
2013-08-20 11:30:00,81.6,74.2,29.90,East,96,2.0,5.0,78,0.00,,,0.00,WUHU216DAVISVP2,2013-08-20 16:30:00,
2013-08-20 11:35:00,81.6,74.2,29.90,ESE,122,2.0,5.0,78,0.00,,,0.00,WUHU216DAVISVP2,2013-08-20 16:35:00,
2013-08-20 11:40:00,82.0,74.2,29.90,SE,144,1.0,4.0,77,0.00,,,0.00,WUHU216DAVISVP2,2013-08-20 16:40:00,
2013-08-20 11:45:00,81.9,74.1,29.90,East,93,3.0,7.0,77,0.00,,,0.00,WUHU216DAVISVP2,2013-08-20 16:45:00,
2013-08-20 11:50:00,82.2,75.2,29.90,ESE,114,1.0,7.0,79,0.00,,,0.00,WUHU216DAVISVP2,2013-08-20 16:50:00,
2013-08-20 11:55:00,82.6,74.4,29.90,ESE,103,2.0,7.0,76,0.00,,,0.00,WUHU216DAVISVP2,2013-08-20 16:55:00,
2013-08-20 12:00:00,82.7,74.9,29.90,SW,220,1.0,7.0,77,0.00,,,0.00,WUHU216DAVISVP2,2013-08-20 17:00:00,
2013-08-20 12:05:00,83.0,74.8,29.90,ESE,106,2.0,4.0,76,0.00,,,0.00,WUHU216DAVISVP2,2013-08-20 17:05:00,
2013-08-20 12:10:00,83.2,75.4,29.90,WSW,241,2.0,4.0,77,0.00,,,0.00,WUHU216DAVISVP2,2013-08-20 17:10:00,
2013-08-20 12:15:00,83.7,75.5,29.90,ENE,63,0.0,4.0,76,0.00,,,0.00,WUHU216DAVISVP2,2013-08-20 17:15:00,
2013-08-20 12:20:00,83.7,75.5,29.90,East,97,3.0,4.0,76,0.00,,,0.00,WUHU216DAVISVP2,2013-08-20 17:20:00,
2013-08-20 12:25:00,83.8,75.6,29.90,SE,144,1.0,4.0,76,0.00,,,0.00,WUHU216DAVISVP2,2013-08-20 17:25:00,
2013-08-20 12:30:00,84.3,75.3,29.89,ESE,122,2.0,4.0,74,0.00,,,0.00,WUHU216DAVISVP2,2013-08-20 17:30:00,
2013-08-20 12:35:00,84.3,75.7,29.89,SE,128,2.0,5.0,75,0.00,,,0.00,WUHU216DAVISVP2,2013-08-20 17:35:00,
2013-08-20 12:40:00,84.6,75.6,29.89,East,97,3.0,5.0,74,0.00,,,0.00,WUHU216DAVISVP2,2013-08-20 17:40:00,
2013-08-20 12:45:00,84.5,75.5,29.89,ESE,108,2.0,5.0,74,0.00,,,0.00,WUHU216DAVISVP2,2013-08-20 17:45:00,
2013-08-20 12:50:00,84.5,75.9,29.89,ESE,111,2.0,7.0,75,0.00,,,0.00,WUHU216DAVISVP2,2013-08-20 17:50:00,
2013-08-20 12:55:00,85.2,76.6,29.89,SE,141,0.0,7.0,75,0.00,,,0.00,WUHU216DAVISVP2,2013-08-20 17:55:00,
2013-08-20 13:00:00,85.9,76.5,29.89,ESE,115,0.0,7.0,73,0.00,,,0.00,WUHU216DAVISVP2,2013-08-20 18:00:00,
2013-08-20 13:05:00,85.9,75.8,29.89,West,269,3.0,7.0,72,0.00,,,0.00,WUHU216DAVISVP2,2013-08-20 18:05:00,
2013-08-20 13:10:00,86.1,75.8,29.89,SE,133,2.0,4.0,71,0.00,,,0.00,WUHU216DAVISVP2,2013-08-20 18:10:00,
2013-08-20 13:15:00,86.2,76.3,29.88,SE,127,1.0,4.0,72,0.00,,,0.00,WUHU216DAVISVP2,2013-08-20 18:15:00,
2013-08-20 13:20:00,86.0,76.6,29.89,ESE,110,2.0,4.0,73,0.00,,,0.00,WUHU216DAVISVP2,2013-08-20 18:20:00,
2013-08-20 13:25:00,85.9,76.1,29.89,SE,132,1.0,4.0,72,0.00,,,0.00,WUHU216DAVISVP2,2013-08-20 18:25:00,
2013-08-20 13:30:00,86.2,75.9,29.88,SE,128,3.0,5.0,71,0.00,,,0.00,WUHU216DAVISVP2,2013-08-20 18:30:00,
2013-08-20 13:35:00,86.1,75.8,29.88,East,91,2.0,5.0,71,0.00,,,0.00,WUHU216DAVISVP2,2013-08-20 18:35:00,
2013-08-20 13:40:00,86.5,76.6,29.88,SE,126,2.0,5.0,72,0.00,,,0.00,WUHU216DAVISVP2,2013-08-20 18:40:00,
2013-08-20 13:45:00,86.8,76.1,29.88,East,97,3.0,5.0,70,0.00,,,0.00,WUHU216DAVISVP2,2013-08-20 18:45:00,
2013-08-20 13:50:00,86.7,75.6,29.88,East,88,1.0,5.0,69,0.00,,,0.00,WUHU216DAVISVP2,2013-08-20 18:50:00,
2013-08-20 13:55:00,87.2,76.5,29.88,ESE,105,0.0,5.0,70,0.00,,,0.00,WUHU216DAVISVP2,2013-08-20 18:55:00,
2013-08-20 14:00:00,87.5,75.9,29.88,East,99,2.0,5.0,68,0.00,,,0.00,WUHU216DAVISVP2,2013-08-20 19:00:00,
2013-08-20 14:05:00,87.6,74.7,29.88,South,187,1.0,5.0,65,0.00,,,0.00,WUHU216DAVISVP2,2013-08-20 19:05:00,
2013-08-20 14:10:00,88.1,75.6,29.88,East,97,2.0,5.0,66,0.00,,,0.00,WUHU216DAVISVP2,2013-08-20 19:10:00,
2013-08-20 14:15:00,88.5,76.4,29.88,South,188,0.0,5.0,67,0.00,,,0.00,WUHU216DAVISVP2,2013-08-20 19:15:00,
2013-08-20 14:20:00,88.5,76.4,29.88,East,84,2.0,5.0,67,0.00,,,0.00,WUHU216DAVISVP2,2013-08-20 19:20:00,
2013-08-20 14:25:00,88.0,75.0,29.88,ENE,73,1.0,5.0,65,0.00,,,0.00,WUHU216DAVISVP2,2013-08-20 19:25:00,
2013-08-20 14:30:00,88.1,75.3,29.88,SE,127,1.0,7.0,66,0.00,,,0.00,WUHU216DAVISVP2,2013-08-20 19:30:00,
2013-08-20 14:35:00,88.3,75.5,29.88,ESE,103,1.0,7.0,66,0.00,,,0.00,WUHU216DAVISVP2,2013-08-20 19:35:00,
2013-08-20 14:40:00,88.6,75.8,29.88,SSE,156,1.0,7.0,66,0.00,,,0.00,WUHU216DAVISVP2,2013-08-20 19:40:00,
2013-08-20 14:45:00,89.1,75.3,29.88,NNE,15,1.0,5.0,64,0.00,,,0.00,WUHU216DAVISVP2,2013-08-20 19:45:00,
2013-08-20 14:50:00,89.0,74.3,29.88,SE,124,2.0,5.0,62,0.00,,,0.00,WUHU216DAVISVP2,2013-08-20 19:50:00,
2013-08-20 14:55:00,88.9,73.7,29.88,SSE,147,0.0,4.0,61,0.00,,,0.00,WUHU216DAVISVP2,2013-08-20 19:55:00,
2013-08-20 15:00:00,89.2,71.7,29.88,West,263,1.0,4.0,56,0.00,,,0.00,WUHU216DAVISVP2,2013-08-20 20:00:00,
2013-08-20 15:05:00,89.7,74.3,29.87,SE,140,1.0,4.0,60,0.00,,,0.00,WUHU216DAVISVP2,2013-08-20 20:05:00,
2013-08-20 15:10:00,89.6,73.4,29.87,East,84,2.0,4.0,59,0.00,,,0.00,WUHU216DAVISVP2,2013-08-20 20:10:00,
2013-08-20 15:15:00,89.5,73.6,29.87,SSW,205,2.0,4.0,59,0.00,,,0.00,WUHU216DAVISVP2,2013-08-20 20:15:00,
2013-08-20 15:20:00,89.5,74.1,29.87,SE,142,3.0,4.0,60,0.00,,,0.00,WUHU216DAVISVP2,2013-08-20 20:20:00,
2013-08-20 15:25:00,89.5,71.5,29.87,ESE,106,2.0,4.0,55,0.00,,,0.00,WUHU216DAVISVP2,2013-08-20 20:25:00,
2013-08-20 15:30:00,89.6,72.6,29.87,ESE,111,2.0,4.0,57,0.00,,,0.00,WUHU216DAVISVP2,2013-08-20 20:30:00,
2013-08-20 15:35:00,89.4,73.5,29.87,East,100,2.0,4.0,59,0.00,,,0.00,WUHU216DAVISVP2,2013-08-20 20:35:00,
2013-08-20 15:40:00,89.5,73.1,29.87,SE,139,1.0,4.0,58,0.00,,,0.00,WUHU216DAVISVP2,2013-08-20 20:40:00,
2013-08-20 15:45:00,89.6,74.2,29.86,South,172,1.0,4.0,60,0.00,,,0.00,WUHU216DAVISVP2,2013-08-20 20:45:00,
2013-08-20 15:50:00,89.8,72.3,29.86,ESE,108,2.0,5.0,56,0.00,,,0.00,WUHU216DAVISVP2,2013-08-20 20:50:00,
2013-08-20 15:55:00,89.8,72.8,29.86,East,94,2.0,5.0,57,0.00,,,0.00,WUHU216DAVISVP2,2013-08-20 20:55:00,
2013-08-20 16:00:00,89.8,72.8,29.87,East,87,2.0,5.0,57,0.00,,,0.00,WUHU216DAVISVP2,2013-08-20 21:00:00,
2013-08-20 16:05:00,90.0,73.0,29.87,ENE,63,3.0,5.0,57,0.00,,,0.00,WUHU216DAVISVP2,2013-08-20 21:05:00,
2013-08-20 16:10:00,90.3,71.6,29.87,ESE,113,2.0,4.0,54,0.00,,,0.00,WUHU216DAVISVP2,2013-08-20 21:10:00,
2013-08-20 16:15:00,90.0,73.0,29.86,SSE,148,0.0,4.0,57,0.00,,,0.00,WUHU216DAVISVP2,2013-08-20 21:15:00,
2013-08-20 16:20:00,90.2,73.7,29.86,SE,145,0.0,4.0,58,0.00,,,0.00,WUHU216DAVISVP2,2013-08-20 21:20:00,
2013-08-20 16:25:00,90.3,73.3,29.86,ESE,106,2.0,4.0,57,0.00,,,0.00,WUHU216DAVISVP2,2013-08-20 21:25:00,
2013-08-20 16:30:00,90.2,73.2,29.86,SE,129,1.0,3.0,57,0.00,,,0.00,WUHU216DAVISVP2,2013-08-20 21:30:00,
2013-08-20 16:35:00,90.3,71.6,29.86,SE,143,1.0,3.0,54,0.00,,,0.00,WUHU216DAVISVP2,2013-08-20 21:35:00,
2013-08-20 16:40:00,90.3,72.7,29.86,ESE,117,1.0,3.0,56,0.00,,,0.00,WUHU216DAVISVP2,2013-08-20 21:40:00,
2013-08-20 16:45:00,89.4,72.4,29.86,East,95,2.0,7.0,57,0.00,,,0.00,WUHU216DAVISVP2,2013-08-20 21:45:00,
2013-08-20 16:50:00,88.9,72.5,29.86,ESE,107,1.0,7.0,58,0.00,,,0.00,WUHU216DAVISVP2,2013-08-20 21:50:00,
2013-08-20 16:55:00,89.0,71.5,29.86,SSW,209,1.0,7.0,56,0.00,,,0.00,WUHU216DAVISVP2,2013-08-20 21:55:00,
2013-08-20 17:00:00,89.1,71.6,29.86,East,100,1.0,5.0,56,0.00,,,0.00,WUHU216DAVISVP2,2013-08-20 22:00:00,
2013-08-20 17:05:00,89.2,71.7,29.86,SSE,157,1.0,3.0,56,0.00,,,0.00,WUHU216DAVISVP2,2013-08-20 22:05:00,
2013-08-20 17:10:00,89.2,73.3,29.86,ESE,108,1.0,3.0,59,0.00,,,0.00,WUHU216DAVISVP2,2013-08-20 22:10:00,
2013-08-20 17:15:00,88.9,73.5,29.85,East,84,1.0,3.0,60,0.00,,,0.00,WUHU216DAVISVP2,2013-08-20 22:15:00,
2013-08-20 17:20:00,88.8,72.4,29.85,SSE,148,1.0,5.0,58,0.00,,,0.00,WUHU216DAVISVP2,2013-08-20 22:20:00,
2013-08-20 17:25:00,88.6,72.7,29.85,SSE,152,1.0,5.0,59,0.00,,,0.00,WUHU216DAVISVP2,2013-08-20 22:25:00,
2013-08-20 17:30:00,88.6,73.7,29.85,SSE,155,0.0,5.0,61,0.00,,,0.00,WUHU216DAVISVP2,2013-08-20 22:30:00,
2013-08-20 17:35:00,89.0,74.1,29.85,SSE,153,0.0,5.0,61,0.00,,,0.00,WUHU216DAVISVP2,2013-08-20 22:35:00,
2013-08-20 17:40:00,89.0,73.6,29.85,SSE,150,0.0,3.0,60,0.00,,,0.00,WUHU216DAVISVP2,2013-08-20 22:40:00,
2013-08-20 17:45:00,89.0,74.1,29.85,SE,143,1.0,1.0,61,0.00,,,0.00,WUHU216DAVISVP2,2013-08-20 22:45:00,
2013-08-20 17:50:00,88.7,74.3,29.85,SE,124,2.0,7.0,62,0.00,,,0.00,WUHU216DAVISVP2,2013-08-20 22:50:00,
2013-08-20 17:55:00,88.3,74.9,29.85,SE,129,1.0,7.0,64,0.00,,,0.00,WUHU216DAVISVP2,2013-08-20 22:55:00,
2013-08-20 18:00:00,88.3,74.9,29.85,SSE,155,1.0,7.0,64,0.00,,,0.00,WUHU216DAVISVP2,2013-08-20 23:00:00,
2013-08-20 18:05:00,88.3,75.3,29.85,ESE,119,1.0,7.0,65,0.00,,,0.00,WUHU216DAVISVP2,2013-08-20 23:05:00,
2013-08-20 18:10:00,88.2,75.7,29.85,SE,127,1.0,5.0,66,0.00,,,0.00,WUHU216DAVISVP2,2013-08-20 23:10:00,
2013-08-20 18:15:00,88.3,75.8,29.85,SSE,157,1.0,5.0,66,0.00,,,0.00,WUHU216DAVISVP2,2013-08-20 23:15:00,
2013-08-20 18:20:00,87.9,75.9,29.85,SE,138,3.0,5.0,67,0.00,,,0.00,WUHU216DAVISVP2,2013-08-20 23:20:00,
2013-08-20 18:25:00,87.5,76.3,29.85,South,169,1.0,4.0,69,0.00,,,0.00,WUHU216DAVISVP2,2013-08-20 23:25:00,
2013-08-20 18:30:00,87.4,76.2,29.85,East,101,1.0,4.0,69,0.00,,,0.00,WUHU216DAVISVP2,2013-08-20 23:30:00,
2013-08-20 18:35:00,87.0,76.3,29.85,SE,141,0.0,4.0,70,0.00,,,0.00,WUHU216DAVISVP2,2013-08-20 23:35:00,
2013-08-20 18:40:00,86.8,76.5,29.85,East,96,0.0,3.0,71,0.00,,,0.00,WUHU216DAVISVP2,2013-08-20 23:40:00,
2013-08-20 18:45:00,86.5,76.6,29.85,SSE,153,0.0,3.0,72,0.00,,,0.00,WUHU216DAVISVP2,2013-08-20 23:45:00,
2013-08-20 18:50:00,86.1,76.3,29.85,East,98,0.0,3.0,72,0.00,,,0.00,WUHU216DAVISVP2,2013-08-20 23:50:00,
2013-08-20 18:55:00,85.8,76.8,29.85,ESE,105,0.0,0.0,74,0.00,,,0.00,WUHU216DAVISVP2,2013-08-20 23:55:00,
2013-08-20 19:00:00,85.7,76.7,29.85,SE,137,0.0,0.0,74,0.00,,,0.00,WUHU216DAVISVP2,2013-08-21 00:00:00,
2013-08-20 19:05:00,85.5,76.9,29.85,SE,138,0.0,0.0,75,0.00,,,0.00,WUHU216DAVISVP2,2013-08-21 00:05:00,
2013-08-20 19:10:00,85.4,77.2,29.85,East,79,0.0,0.0,76,0.00,,,0.00,WUHU216DAVISVP2,2013-08-21 00:10:00,
2013-08-20 19:15:00,85.2,77.3,29.85,SSE,154,0.0,0.0,77,0.00,,,0.00,WUHU216DAVISVP2,2013-08-21 00:15:00,
2013-08-20 19:20:00,85.0,77.5,29.85,SE,141,0.0,1.0,78,0.00,,,0.00,WUHU216DAVISVP2,2013-08-21 00:20:00,
2013-08-20 19:25:00,84.8,77.3,29.85,SE,127,0.0,1.0,78,0.00,,,0.00,WUHU216DAVISVP2,2013-08-21 00:25:00,
2013-08-20 19:30:00,84.7,77.6,29.85,SE,127,0.0,1.0,79,0.00,,,0.00,WUHU216DAVISVP2,2013-08-21 00:30:00,
2013-08-20 19:35:00,84.5,77.4,29.85,East,97,1.0,3.0,79,0.00,,,0.00,WUHU216DAVISVP2,2013-08-21 00:35:00,
2013-08-20 19:40:00,84.1,77.4,29.85,ESE,103,1.0,3.0,80,0.00,,,0.00,WUHU216DAVISVP2,2013-08-21 00:40:00,
2013-08-20 19:45:00,83.9,77.6,29.85,ESE,104,1.0,3.0,81,0.00,,,0.00,WUHU216DAVISVP2,2013-08-21 00:45:00,
2013-08-20 19:50:00,83.6,77.1,29.85,East,100,0.0,3.0,81,0.00,,,0.00,WUHU216DAVISVP2,2013-08-21 00:50:00,
2013-08-20 19:55:00,83.3,76.9,29.85,ESE,104,0.0,1.0,81,0.00,,,0.00,WUHU216DAVISVP2,2013-08-21 00:55:00,
2013-08-20 20:00:00,83.0,76.9,29.85,NE,56,0.0,1.0,82,0.00,,,0.00,WUHU216DAVISVP2,2013-08-21 01:00:00,
2013-08-20 20:05:00,82.7,76.7,29.85,SE,139,0.0,1.0,82,0.00,,,0.00,WUHU216DAVISVP2,2013-08-21 01:05:00,
2013-08-20 20:10:00,82.4,76.8,29.85,ESE,121,0.0,1.0,83,0.00,,,0.00,WUHU216DAVISVP2,2013-08-21 01:10:00,
2013-08-20 20:15:00,82.1,76.5,29.86,ESE,122,0.0,0.0,83,0.00,,,0.00,WUHU216DAVISVP2,2013-08-21 01:15:00,
2013-08-20 20:19:00,81.9,76.7,29.86,SE,146,0.0,0.0,84,0.00,,,0.00,WUHU216DAVISVP2,2013-08-21 01:19:00,
2013-08-20 20:24:00,81.7,76.5,29.86,ESE,123,0.0,0.0,84,0.00,,,0.00,WUHU216DAVISVP2,2013-08-21 01:24:00,
2013-08-20 20:29:00,81.4,76.5,29.86,SE,134,0.0,0.0,85,0.00,,,0.00,WUHU216DAVISVP2,2013-08-21 01:29:00,
2013-08-20 20:34:00,81.2,76.3,29.86,SE,133,0.0,0.0,85,0.00,,,0.00,WUHU216DAVISVP2,2013-08-21 01:34:00,
2013-08-20 20:39:00,81.0,76.1,29.86,ESE,119,0.0,0.0,85,0.00,,,0.00,WUHU216DAVISVP2,2013-08-21 01:39:00,
2013-08-20 20:44:00,80.7,76.2,29.86,ENE,66,0.0,0.0,86,0.00,,,0.00,WUHU216DAVISVP2,2013-08-21 01:44:00,
2013-08-20 20:49:00,80.5,76.0,29.86,SE,127,0.0,0.0,86,0.00,,,0.00,WUHU216DAVISVP2,2013-08-21 01:49:00,
2013-08-20 20:54:00,80.3,75.8,29.86,SE,127,0.0,0.0,86,0.00,,,0.00,WUHU216DAVISVP2,2013-08-21 01:54:00,
2013-08-20 20:59:00,80.1,75.6,29.87,SE,129,0.0,0.0,86,0.00,,,0.00,WUHU216DAVISVP2,2013-08-21 01:59:00,
2013-08-20 21:04:00,79.9,75.7,29.87,SE,129,0.0,0.0,87,0.00,,,0.00,WUHU216DAVISVP2,2013-08-21 02:04:00,
2013-08-20 21:09:00,79.7,75.5,29.87,SE,129,0.0,0.0,87,0.00,,,0.00,WUHU216DAVISVP2,2013-08-21 02:09:00,
2013-08-20 21:14:00,79.6,75.4,29.87,SE,129,0.0,0.0,87,0.00,,,0.00,WUHU216DAVISVP2,2013-08-21 02:14:00,
2013-08-20 21:19:00,79.4,75.2,29.87,SE,129,0.0,0.0,87,0.00,,,0.00,WUHU216DAVISVP2,2013-08-21 02:19:00,
2013-08-20 21:24:00,79.3,75.1,29.87,SE,129,0.0,0.0,87,0.00,,,0.00,WUHU216DAVISVP2,2013-08-21 02:24:00,
2013-08-20 21:29:00,79.2,75.4,29.87,South,169,0.0,0.0,88,0.00,,,0.00,WUHU216DAVISVP2,2013-08-21 02:29:00,
2013-08-20 21:34:00,79.0,75.2,29.87,SSE,167,0.0,0.0,88,0.00,,,0.00,WUHU216DAVISVP2,2013-08-21 02:34:00,
2013-08-20 21:39:00,78.8,75.0,29.88,SE,144,0.0,0.0,88,0.00,,,0.00,WUHU216DAVISVP2,2013-08-21 02:39:00,
2013-08-20 21:44:00,78.7,74.9,29.88,SE,145,0.0,0.0,88,0.00,,,0.00,WUHU216DAVISVP2,2013-08-21 02:44:00,
2013-08-20 21:49:00,78.5,74.7,29.88,SE,144,0.0,0.0,88,0.00,,,0.00,WUHU216DAVISVP2,2013-08-21 02:49:00,
2013-08-20 21:54:00,78.4,74.6,29.88,SSE,158,0.0,0.0,88,0.00,,,0.00,WUHU216DAVISVP2,2013-08-21 02:54:00,
2013-08-20 21:59:00,78.2,74.4,29.88,SSE,154,0.0,0.0,88,0.00,,,0.00,WUHU216DAVISVP2,2013-08-21 02:59:00,
2013-08-20 22:04:00,78.1,74.6,29.88,SSE,153,0.0,0.0,89,0.00,,,0.00,WUHU216DAVISVP2,2013-08-21 03:04:00,
2013-08-20 22:09:00,78.0,74.5,29.88,SE,146,0.0,0.0,89,0.00,,,0.00,WUHU216DAVISVP2,2013-08-21 03:09:00,
2013-08-20 22:14:00,77.9,74.4,29.88,SSE,154,0.0,0.0,89,0.00,,,0.00,WUHU216DAVISVP2,2013-08-21 03:14:00,
2013-08-20 22:19:00,77.7,74.2,29.87,SSE,150,0.0,0.0,89,0.00,,,0.00,WUHU216DAVISVP2,2013-08-21 03:19:00,
2013-08-20 22:24:00,77.6,74.1,29.87,SSE,148,0.0,0.0,89,0.00,,,0.00,WUHU216DAVISVP2,2013-08-21 03:24:00,
2013-08-20 22:29:00,77.5,74.0,29.87,SSE,150,0.0,0.0,89,0.00,,,0.00,WUHU216DAVISVP2,2013-08-21 03:29:00,
2013-08-20 22:34:00,77.4,73.9,29.87,SE,137,0.0,0.0,89,0.00,,,0.00,WUHU216DAVISVP2,2013-08-21 03:34:00,
2013-08-20 22:39:00,77.2,73.7,29.87,SE,142,0.0,0.0,89,0.00,,,0.00,WUHU216DAVISVP2,2013-08-21 03:39:00,
2013-08-20 22:44:00,77.1,73.9,29.87,SSE,152,0.0,0.0,90,0.00,,,0.00,WUHU216DAVISVP2,2013-08-21 03:44:00,
2013-08-20 22:49:00,77.0,73.8,29.87,SE,146,0.0,0.0,90,0.00,,,0.00,WUHU216DAVISVP2,2013-08-21 03:49:00,
2013-08-20 22:54:00,76.8,73.6,29.87,SSE,148,0.0,0.0,90,0.00,,,0.00,WUHU216DAVISVP2,2013-08-21 03:54:00,
2013-08-20 22:59:00,76.7,73.5,29.87,SSE,149,0.0,0.0,90,0.00,,,0.00,WUHU216DAVISVP2,2013-08-21 03:59:00,
2013-08-20 23:01:00,76.7,73.5,29.87,SE,143,0.0,0.0,90,0.00,,,0.00,WUHU216DAVISVP2,2013-08-21 04:01:00,
2013-08-20 23:06:00,76.6,73.4,29.87,SSE,150,0.0,0.0,90,0.00,,,0.00,WUHU216DAVISVP2,2013-08-21 04:06:00,
2013-08-20 23:11:00,76.5,73.3,29.87,ENE,70,1.0,1.0,90,0.00,,,0.00,WUHU216DAVISVP2,2013-08-21 04:11:00,
2013-08-20 23:16:00,76.5,73.3,29.87,SSE,148,1.0,1.0,90,0.00,,,0.00,WUHU216DAVISVP2,2013-08-21 04:16:00,
2013-08-20 23:21:00,76.4,73.2,29.87,SE,144,1.0,3.0,90,0.00,,,0.00,WUHU216DAVISVP2,2013-08-21 04:21:00,
2013-08-20 23:26:00,76.4,73.2,29.88,SSE,154,1.0,3.0,90,0.00,,,0.00,WUHU216DAVISVP2,2013-08-21 04:26:00,
2013-08-20 23:31:00,76.3,73.1,29.88,SSE,150,0.0,3.0,90,0.00,,,0.00,WUHU216DAVISVP2,2013-08-21 04:31:00,
2013-08-20 23:36:00,76.2,73.1,29.88,ESE,123,1.0,3.0,90,0.00,,,0.00,WUHU216DAVISVP2,2013-08-21 04:36:00,
2013-08-20 23:41:00,76.2,73.0,29.88,SSE,150,0.0,3.0,90,0.00,,,0.00,WUHU216DAVISVP2,2013-08-21 04:41:00,
2013-08-20 23:46:00,76.1,72.9,29.88,SSE,155,0.0,3.0,90,0.00,,,0.00,WUHU216DAVISVP2,2013-08-21 04:46:00,
2013-08-20 23:51:00,76.0,72.8,29.88,SSE,154,0.0,1.0,90,0.00,,,0.00,WUHU216DAVISVP2,2013-08-21 04:51:00,
2013-08-20 23:56:00,76.0,72.8,29.88,SE,139,0.0,1.0,90,0.00,,,0.00,WUHU216DAVISVP2,2013-08-21 04:56:00,